This is the latest recevied weather packets stored in our database for station/object KI4BIY. If no packets are shown the sender has not sent any weather packets the latest 10 day(s).
| Time | Temp. | Humidity | Pressure | Rain* | Wind** | Luminosity | Snow |
|---|---|---|---|---|---|---|---|
| 1778157033 | 10.56° C | 99% | 1016.6 hPa | 0 mm | - | 28 W/m² | - |
| 1778156728 | 10.56° C | 99% | 1016.5 hPa | 0 mm | - | 39 W/m² | - |
| 1778156424 | 10° C | 99% | 1016.3 hPa | 0 mm | - | 42 W/m² | - |
| 1778156120 | 10° C | 99% | 1016 hPa | 0 mm | - | 35 W/m² | - |
| 1778155816 | 10° C | 99% | 1016.2 hPa | 0 mm | - | 30 W/m² | - |
| 1778155512 | 10° C | 99% | 1016.1 hPa | 0 mm | - | 32 W/m² | - |
| 1778155210 | 10° C | 99% | 1015.9 hPa | 0 mm | - | 26 W/m² | - |
| 1778154906 | 9.44° C | 99% | 1015.8 hPa | 0 mm | - | 24 W/m² | - |
| 1778154601 | 9.44° C | 99% | 1015.8 hPa | 0 mm | - | 18 W/m² | - |
| 1778154298 | 9.44° C | 99% | 1015.7 hPa | 0 mm | - | 16 W/m² | - |
| 1778153995 | 9.44° C | 99% | 1015.8 hPa | 0 mm | - | 12 W/m² | - |
| 1778153692 | 9.44° C | 99% | 1015.8 hPa | 0 mm | - | 10 W/m² | - |
| 1778153389 | 9.44° C | 99% | 1015.8 hPa | 0 mm | - | 7 W/m² | - |
| 1778153087 | 9.44° C | 99% | 1015.5 hPa | 0 mm | - | 7 W/m² | - |
| 1778152783 | 9.44° C | 99% | 1015.5 hPa | 0 mm | - | 6 W/m² | - |
| 1778152481 | 9.44° C | 99% | 1015.8 hPa | 0 mm | - | 2 W/m² | - |
| 1778152177 | 9.44° C | 99% | 1015.9 hPa | 0 mm | - | 1 W/m² | - |
| 1778151873 | 9.44° C | 99% | 1015.5 hPa | 0 mm | - | 0 W/m² | - |
| 1778151570 | 9.44° C | 99% | 1015.7 hPa | 0 mm | - | 0 W/m² | - |
| 1778151267 | 9.44° C | 99% | 1015.4 hPa | 0 mm | - | 0 W/m² | - |
| 1778150963 | 8.89° C | 99% | 1015.4 hPa | 0 mm | - | 0 W/m² | - |
| 1778150661 | 8.89° C | 99% | 1015.4 hPa | 0 mm | - | 0 W/m² | - |
| 1778150356 | 9.44° C | 99% | 1015.4 hPa | 0 mm | - | 0 W/m² | - |
| 1778150053 | 9.44° C | 99% | 1015.4 hPa | 0 mm | - | 0 W/m² | - |
| 1778149749 | 9.44° C | 99% | 1015.3 hPa | 0 mm | - | 0 W/m² | - |
* Rain latest hour (hover to see other rain measurements)
** Current wind speed in m/s (hover to see current wind gust speed)